Zurück zum Katalog

STARLINK-3098

AktivKommunikationVLEO
NORAD 49442·PAYLOAD·🇺🇸 United States

Gestartet Nov 13, 2021 von Cape Canaveral Space Force Station

Loading…

Nächste Überflüge (nächste 24 Stunden)

TLE

AktuellSource: CelesTrak SupGP

Epoche: Sep 14, 2026, 21:28 UTC

1 49442C 21104AL  26257.89493056  .00778510  00000+0  14286-1 0  2573
2 49442  53.1591  63.0046 0001341  83.4454  59.1734 15.48281412    11

Verfolge STARLINK-3098 in Echtzeit mit AllMySat

Download on the App Store